Alexandria, MN

8:07 PM CST on February 06, 2016 (GMT -0600)
Chandler

Weather History for KAXN - October, 2013

Change the Weather History Date:

Tuesday, October 8, 2013

  Actual Average Record
Temperature  
Mean Temperature 62 °F -  
Max Temperature 77 °F 56 °F 84 °F (2010)
Min Temperature 48 °F 38 °F 21 °F (2000)
Degree Days  
Heating Degree Days 4    
Growing Degree Days 12 (Base 50)    
Moisture  
Dew Point 44 °F    
Average Humidity 52    
Maximum Humidity 77    
Minimum Humidity 32    
Precipitation  
Precipitation 0.00 in - - ()
Sea Level Pressure  
Sea Level Pressure 29.77 in    
Wind  
Wind Speed 14 mph (South)    
Max Wind Speed 23 mph    
Max Gust Speed 34 mph    
Visibility 10 miles    
Events      
Averages and records for this station are not official NWS values.
T = Trace of Precipitation, MM = Missing Value Source: NWS Daily Summary

Daily Weather History Graph

Daily Weather History Graph

Search for Another Location

Airport or City:

Trip Planner

Search our weather history database for the weather conditions in past years. The results will help you decide how hot, cold, wet, or windy it might be!

Date:

Astronomy

Oct. 08, 2013 Rise Set
Actual Time 7:29 AM CDT 6:47 PM CDT
Civil Twilight 6:59 AM CDT 7:17 PM CDT
Nautical Twilight 6:24 AM CDT 7:52 PM CDT
Astronomical Twilight 5:50 AM CDT 8:26 PM CDT
Moon 11:36 AM CDT (10/8) 9:13 PM CDT (10/8)
Length of Visible Light 12h 18m
Length of Day
11h 18m
Waxing Crescent, 16% of the Moon is Illuminated
Oct 8
Waxing Crescent
Oct 11
First Quarter
Oct 18
Full
Oct 26
Last Quarter
Nov 3
New

Hourly Weather History & Observations

Time (CDT) Temp. Dew Point Humidity Pressure Visibility Wind Dir Wind Speed Gust Speed Precip Events Conditions
12:53 AM 51.1 °F 39.9 °F 66% 29.91 in 10.0 mi SSE 10.4 mph - N/A   Clear
1:53 AM 51.1 °F 42.1 °F 71% 29.88 in 10.0 mi SSE 10.4 mph - N/A   Clear
2:53 AM 48.9 °F 42.1 °F 77% 29.88 in 10.0 mi SSE 8.1 mph - N/A   Clear
3:53 AM 50.0 °F 43.0 °F 77% 29.84 in 10.0 mi SSE 10.4 mph - N/A   Clear
4:53 AM 50.0 °F 43.0 °F 77% 29.82 in 10.0 mi SSE 9.2 mph - N/A   Clear
5:53 AM 50.0 °F 42.1 °F 74% 29.79 in 10.0 mi SSE 15.0 mph - N/A   Clear
6:53 AM 50.0 °F 42.1 °F 74% 29.79 in 10.0 mi SE 9.2 mph - N/A   Clear
7:53 AM 53.1 °F 42.1 °F 66% 29.78 in 9.0 mi South 13.8 mph - N/A   Clear
8:53 AM 57.0 °F 42.1 °F 57% 29.76 in 10.0 mi South 18.4 mph - N/A   Clear
9:53 AM 62.1 °F 43.0 °F 50% 29.75 in 10.0 mi South 20.7 mph 26.5 mph N/A   Clear
10:53 AM 64.9 °F 45.0 °F 48% 29.74 in 10.0 mi South 17.3 mph 26.5 mph N/A   Clear
11:53 AM 69.1 °F 45.0 °F 42% 29.70 in 10.0 mi South 21.9 mph 29.9 mph N/A   Clear
12:53 PM 73.9 °F 45.0 °F 35% 29.71 in 10.0 mi South 21.9 mph 29.9 mph N/A   Clear
1:53 PM 75.0 °F 43.0 °F 32% 29.70 in 10.0 mi South 23.0 mph 32.2 mph N/A   Clear
2:53 PM 75.9 °F 44.1 °F 32% 29.69 in 10.0 mi South 20.7 mph 28.8 mph N/A   Clear
3:53 PM 75.0 °F 44.1 °F 33% 29.70 in 10.0 mi South 17.3 mph 34.5 mph N/A   Clear
4:53 PM 73.9 °F 45.0 °F 35% 29.71 in 10.0 mi South 15.0 mph 26.5 mph N/A   Clear
5:27 PM 71.6 °F 44.6 °F 38% 29.73 in 2.0 mi South 16.1 mph 24.2 mph N/A   Haze
5:36 PM 71.6 °F 44.6 °F 38% 29.73 in 10.0 mi South 13.8 mph 23.0 mph N/A   Clear
5:53 PM 70.0 °F 45.0 °F 41% 29.74 in 10.0 mi South 13.8 mph 23.0 mph N/A   Clear
6:53 PM 66.9 °F 45.0 °F 45% 29.76 in 10.0 mi South 12.7 mph - N/A   Clear
7:53 PM 66.9 °F 45.0 °F 45% 29.77 in 10.0 mi South 15.0 mph 21.9 mph N/A   Clear
8:53 PM 66.9 °F 45.0 °F 45% 29.78 in 10.0 mi South 18.4 mph 26.5 mph N/A   Clear
9:53 PM 66.0 °F 46.0 °F 48% 29.79 in 10.0 mi South 19.6 mph 25.3 mph N/A   Clear
10:53 PM 64.9 °F 46.0 °F 50% 29.81 in 10.0 mi South 16.1 mph 23.0 mph N/A   Clear
11:53 PM 63.0 °F 46.0 °F 54% 29.82 in 10.0 mi South 13.8 mph - N/A   Clear